Location: Eaton
(41.3139°N, 82.0207°W)
Time: 14:39:51
(UTC+00:00)

USA 305 - Pass Details

Date: 17 June 2021
Orbit: 558 x 580 km, 54.0° (Epoch: 13 July)

Event Time Altitude Azimuth Distance (km) Brightness Sun altitude
Exits shadow 07:32:17 44° 172° (S) 781 3.2 -19.3°
Maximum altitude 07:33:04 51° 134° (SE) 709 3.2 -19.2°
Drops below altitude 10° 07:37:08 10° 59° (ENE) 1,849 6.4 -18.8°
Sets 07:39:25 0° 54° (NE) 2,751 7.6 -18.6°
